When you browse on this site, cookies collect data to enhance your experience and personalize the content and advertising you see.
Visit our Privacy Policy to learn more. By continuing to use the site, you agree to this use of cookies and data.
  • en Suisse
  • Liste des pays
  • À 7 jours
  • Température de l'eau
  • Carte météo
  • Widgets météo
  • user-avatar
    Se connecter

    Météo par heure à Dhâkâ

    Ce jour, 16 Février, Dimanche

    Heure Température Précipitation Vent Pression Humidité
    00:00 +21°C° 0 mm 1 m/s 759 mmHg 61%
    01:00 +21°C° 0 mm 1 m/s 758 mmHg 62%
    02:00 +20°C° 0 mm 1 m/s 758 mmHg 63%
    03:00 +20°C° 0 mm 1 m/s 758 mmHg 64%
    04:00 +20°C° 0 mm 1 m/s 758 mmHg 65%
    05:00 +20°C° 0 mm 1 m/s 758 mmHg 67%
    06:00 +17°C° 0 mm 0 m/s 758 mmHg 74%
    07:00 +19°C° 0 mm 0 m/s 759 mmHg 68%
    08:00 +21°C° 0 mm 0 m/s 760 mmHg 62%
    09:00 +23°C° 0 mm 0 m/s 760 mmHg 56%
    10:00 +27°C° 0 mm 1 m/s 760 mmHg 48%
    11:00 +28°C° 0 mm 1 m/s 760 mmHg 40%
    12:00 +30°C° 0 mm 2 m/s 760 mmHg 33%
    13:00 +31°C° 0 mm 2 m/s 759 mmHg 30%
    14:00 +31°C° 0 mm 3 m/s 759 mmHg 28%
    15:00 +33°C° 0 mm 3 m/s 758 mmHg 25%
    16:00 +30°C° 0 mm 3 m/s 758 mmHg 28%
    17:00 +28°C° 0 mm 3 m/s 758 mmHg 31%
    18:00 +26°C° 0 mm 2 m/s 757 mmHg 33%
    19:00 +26°C° 0 mm 2 m/s 758 mmHg 34%
    20:00 +25°C° 0 mm 2 m/s 759 mmHg 35%
    21:00 +24°C° 0 mm 2 m/s 759 mmHg 36%
    22:00 +23°C° 0 mm 2 m/s 759 mmHg 38%
    23:00 +22°C° 0 mm 1 m/s 759 mmHg 40%

    Demain, 17 Février, Lundi

    Heure Température Précipitation Vent Pression Humidité
    00:00 +22°C° 0 mm 1 m/s 759 mmHg 42%
    01:00 +21°C° 0 mm 1 m/s 759 mmHg 44%
    02:00 +18°C° 0 mm 0 m/s 758 mmHg 46%
    03:00 +18°C° 0 mm 0 m/s 758 mmHg 48%
    04:00 +18°C° 0 mm 0 m/s 758 mmHg 51%
    05:00 +17°C° 0 mm 0 m/s 758 mmHg 53%
    06:00 +17°C° 0 mm 0 m/s 758 mmHg 55%
    07:00 +19°C° 0 mm 0 m/s 759 mmHg 50%
    08:00 +21°C° 0 mm 0 m/s 760 mmHg 45%
    09:00 +24°C° 0 mm 0 m/s 760 mmHg 40%
    10:00 +25°C° 0 mm 0 m/s 760 mmHg 35%
    11:00 +29°C° 0 mm 1 m/s 760 mmHg 31%
    12:00 +31°C° 0 mm 1 m/s 759 mmHg 27%
    13:00 +32°C° 0 mm 1 m/s 758 mmHg 25%
    14:00 +32°C° 0 mm 2 m/s 758 mmHg 24%
    15:00 +34°C° 0 mm 3 m/s 757 mmHg 23%
    16:00 +31°C° 0 mm 3 m/s 757 mmHg 26%
    17:00 +29°C° 0 mm 2 m/s 757 mmHg 28%
    18:00 +27°C° 0 mm 2 m/s 757 mmHg 31%
    19:00 +26°C° 0 mm 2 m/s 757 mmHg 32%
    20:00 +25°C° 0 mm 1 m/s 758 mmHg 33%
    21:00 +24°C° 0 mm 1 m/s 759 mmHg 34%
    22:00 +24°C° 0 mm 1 m/s 758 mmHg 36%
    23:00 +23°C° 0 mm 1 m/s 758 mmHg 38%

    Après-demain, 18 Février, Mardi

    Heure Température Précipitation Vent Pression Humidité
    00:00 +22°C° 0 mm 1 m/s 758 mmHg 39%
    01:00 +22°C° 0 mm 1 m/s 758 mmHg 40%
    02:00 +21°C° 0 mm 1 m/s 758 mmHg 42%
    03:00 +21°C° 0 mm 1 m/s 758 mmHg 43%
    04:00 +20°C° 0 mm 1 m/s 758 mmHg 44%
    05:00 +20°C° 0 mm 1 m/s 758 mmHg 45%
    06:00 +19°C° 0 mm 1 m/s 758 mmHg 47%
    07:00 +22°C° 0 mm 1 m/s 759 mmHg 43%
    08:00 +22°C° 0 mm 0 m/s 759 mmHg 39%
    09:00 +24°C° 0 mm 0 m/s 760 mmHg 35%
    10:00 +26°C° 0 mm 0 m/s 759 mmHg 32%
    11:00 +29°C° 0 mm 1 m/s 759 mmHg 29%
    12:00 +31°C° 0 mm 1 m/s 759 mmHg 26%
    13:00 +32°C° 0 mm 2 m/s 758 mmHg 25%
    14:00 +32°C° 0 mm 2 m/s 757 mmHg 23%
    15:00 +34°C° 0 mm 3 m/s 757 mmHg 22%
    16:00 +31°C° 0 mm 3 m/s 757 mmHg 25%
    17:00 +29°C° 0 mm 2 m/s 757 mmHg 28%
    18:00 +27°C° 0 mm 1 m/s 756 mmHg 30%
    19:00 +26°C° 0 mm 1 m/s 757 mmHg 32%
    20:00 +25°C° 0 mm 1 m/s 758 mmHg 34%
    21:00 +24°C° 0 mm 1 m/s 758 mmHg 35%
    22:00 +23°C° 0 mm 1 m/s 758 mmHg 38%
    23:00 +23°C° 0 mm 1 m/s 758 mmHg 40%

    19 Février, Mercredi

    Heure Température Précipitation Vent Pression Humidité
    00:00 +20°C° 0 mm 0 m/s 758 mmHg 42%
    01:00 +20°C° 0 mm 0 m/s 758 mmHg 43%
    02:00 +20°C° 0 mm 0 m/s 758 mmHg 44%
    03:00 +19°C° 0 mm 0 m/s 758 mmHg 45%
    04:00 +19°C° 0 mm 0 m/s 758 mmHg 47%
    05:00 +20°C° 0 mm 1 m/s 758 mmHg 49%
    06:00 +20°C° 0 mm 1 m/s 758 mmHg 51%
    07:00 +22°C° 0 mm 1 m/s 759 mmHg 47%
    08:00 +24°C° 0 mm 1 m/s 759 mmHg 43%
    09:00 +26°C° 0 mm 1 m/s 760 mmHg 39%
    10:00 +28°C° 0 mm 1 m/s 760 mmHg 35%
    11:00 +30°C° 0 mm 1 m/s 759 mmHg 31%
    12:00 +31°C° 0 mm 1 m/s 759 mmHg 27%
    13:00 +32°C° 0 mm 2 m/s 758 mmHg 24%
    14:00 +34°C° 0 mm 2 m/s 757 mmHg 21%
    15:00 +34°C° 0 mm 2 m/s 757 mmHg 18%
    16:00 +31°C° 0 mm 2 m/s 757 mmHg 21%
    17:00 +29°C° 0 mm 1 m/s 756 mmHg 24%
    18:00 +27°C° 0 mm 1 m/s 756 mmHg 26%
    19:00 +26°C° 0 mm 1 m/s 757 mmHg 31%
    20:00 +25°C° 0 mm 2 m/s 758 mmHg 36%
    21:00 +24°C° 0 mm 3 m/s 758 mmHg 41%
    22:00 +22°C° 0 mm 3 m/s 758 mmHg 47%
    23:00 +22°C° 0 mm 3 m/s 758 mmHg 54%

    20 Février, Jeudi

    Heure Température Précipitation Vent Pression Humidité
    00:00 +21°C° 0 mm 3 m/s 759 mmHg 60%
    01:00 +21°C° 0 mm 2 m/s 758 mmHg 62%
    02:00 +20°C° 0 mm 2 m/s 758 mmHg 63%
    03:00 +19°C° 0 mm 2 m/s 758 mmHg 64%
    04:00 +20°C° 0 mm 1 m/s 758 mmHg 66%
    05:00 +20°C° 0 mm 1 m/s 759 mmHg 67%
    06:00 +19°C° 0 mm 1 m/s 759 mmHg 68%
    07:00 +21°C° 0 mm 1 m/s 760 mmHg 62%
    08:00 +23°C° 0 mm 1 m/s 760 mmHg 57%
    09:00 +24°C° 0 mm 1 m/s 761 mmHg 51%
    10:00 +26°C° 0 mm 1 m/s 761 mmHg 45%
    11:00 +29°C° 0 mm 1 m/s 760 mmHg 39%
    12:00 +31°C° 0 mm 1 m/s 760 mmHg 33%
    13:00 +31°C° 0 mm 1 m/s 759 mmHg 30%
    14:00 +32°C° 0 mm 1 m/s 758 mmHg 27%
    15:00 +33°C° 0 mm 1 m/s 757 mmHg 24%
    16:00 +31°C° 0 mm 1 m/s 757 mmHg 27%
    17:00 +30°C° 0 mm 2 m/s 757 mmHg 29%
    18:00 +28°C° 0 mm 2 m/s 757 mmHg 32%
    19:00 +27°C° 0 mm 2 m/s 758 mmHg 33%
    20:00 +26°C° 0 mm 2 m/s 759 mmHg 35%
    21:00 +25°C° 0 mm 3 m/s 759 mmHg 36%
    22:00 +25°C° 0 mm 2 m/s 759 mmHg 43%
    23:00 +24°C° 0 mm 2 m/s 759 mmHg 49%

    21 Février, Vendredi

    Heure Température Précipitation Vent Pression Humidité
    00:00 +24°C° 0 mm 1 m/s 759 mmHg 55%
    01:00 +23°C° 0 mm 1 m/s 759 mmHg 58%
    02:00 +23°C° 0 mm 1 m/s 759 mmHg 60%
    03:00 +22°C° 0 mm 1 m/s 759 mmHg 62%
    04:00 +22°C° 0 mm 1 m/s 759 mmHg 65%
    05:00 +19°C° 0 mm 0 m/s 759 mmHg 67%
    06:00 +19°C° 0 mm 0 m/s 760 mmHg 69%
    07:00 +21°C° 0 mm 0 m/s 760 mmHg 63%
    08:00 +22°C° 0 mm 0 m/s 761 mmHg 57%
    09:00 +24°C° 0 mm 0 m/s 762 mmHg 51%
    10:00 +26°C° 0 mm 0 m/s 762 mmHg 44%
    11:00 +28°C° 0 mm 0 m/s 761 mmHg 37%
    12:00 +32°C° 0 mm 1 m/s 761 mmHg 30%
    19:00 +28°C° 0 mm 1 m/s 759 mmHg 32%
    20:00 +27°C° 0 mm 2 m/s 760 mmHg 34%
    21:00 +26°C° 0 mm 2 m/s 760 mmHg 36%
    22:00 +26°C° 0 mm 2 m/s 760 mmHg 37%
    23:00 +25°C° 0 mm 2 m/s 760 mmHg 38%
    Voir plus